Hourly Data Report for November 07, 2014

All times are specified in Local Standard Time (LST). Add 1 hour to adjust for Daylight Saving Time where and when it is observed.

TROUT LAKE
NORTHWEST TERRITORIES

60°26'27.000" N
121°14'20.000" W
498.00 m
220CQHR
71166
WTE

Download Data

Hourly Data (November 2014)
Hourly Data Report for November 7, 2014
Temp Definition
°C
Dew Point Temp Definition
°C
Rel Hum Definition
%
Wind Dir Definition
10's deg

Wind Spd Definition
km/h
Visibility Definition
km
Stn Press Definition
kPa
Hmdx Definition


Wind Chill Definition


Weather Definition


TIME
00:00 -11.6 -13.6 85 35 20   96.18   -20 LegendNANA
01:00 -11.7 -13.6 86 34 20   96.29   -20 LegendNANA
02:00 -11.9 -14.0 85 35 18   96.39   -20 LegendNANA
03:00 -12.0 -13.8 87 35 16   96.50   -19 LegendNANA
04:00 -12.1 -13.9 87 35 15   96.56   -19 LegendNANA
05:00 -12.1 -14.1 85 35 14   96.65   -19 LegendNANA
06:00 -13.3 -14.8 88 8 6   96.73   -17 LegendNANA
07:00 -13.9 -15.3 89 9 7   96.80   -19 LegendNANA
08:00 -14.2 -15.8 88 9 6   96.86   -18 LegendNANA
09:00 -14.6 -16.3 87 13 6   96.93   -19 LegendNANA
10:00 -14.3 -16.3 85 11 6   96.96   -18 LegendNANA
11:00 -13.9 -16.7 79 11 7   97.01   -19 LegendNANA
12:00 -13.5 -16.9 76 13 6   97.02   -18 LegendNANA
13:00 -12.9 -16.3 76 16 4   97.00   -16 LegendNANA
14:00 -12.5 -15.8 76 17 4   96.98   -15 LegendNANA
15:00 -12.7 -15.4 80 13 9   96.94   -18 LegendNANA
16:00 -13.0 -15.4 82 13 7   96.89   -18 LegendNANA
17:00 -13.6 -15.7 84 13 7   96.87   -18 LegendNANA
18:00 -13.9 -15.9 85 13 7   96.81   -19 LegendNANA
19:00 -14.1 -15.9 86 15 3   96.79   -16 LegendNANA
20:00 -14.3 -16.1 86 11 4   96.78   -17 LegendNANA
21:00 -14.4 -16.0 87 12 6   96.75   -19 LegendNANA
22:00 -14.2 -15.8 88 13 5   96.73   -18 LegendNANA
23:00 -13.9 -15.7 86 13 8   96.66   -19 LegendNANA

Notes on Data Quality.

Legend

  • E = Estimated
  • M = Missing
  • NA = Not Available
  • ‡ = Partner data that is not subject to review by the National Climate Archives
Date modified: